• In Latvia
  • List of Countries
  • For 7 days
  • Water Temperature
  • Satellite Maps
  • Weather Map
  • Weather Widgets
  • user-avatar
    Login

    Hourly Weather Innsbruck

    Today, 17 August, Thursday

    Time Temperature Precipitation Wind Pressure Humidity
    00:00 +8°C° 0.1 mm 1 mps 601 mmHg 91%
    01:00 +8°C° 0 mm 1 mps 600 mmHg 90%
    02:00 +8°C° 0 mm 1 mps 600 mmHg 90%
    03:00 +8°C° 0 mm 1 mps 600 mmHg 90%
    04:00 +7°C° 0 mm 1 mps 600 mmHg 90%
    05:00 +9°C° 0 mm 1 mps 600 mmHg 87%
    06:00 +10°C° 0 mm 1 mps 601 mmHg 83%
    07:00 +11°C° 0 mm 1 mps 602 mmHg 80%
    08:00 +14°C° 0 mm 1 mps 603 mmHg 70%
    09:00 +15°C° 0 mm 0 mps 604 mmHg 60%
    10:00 +17°C° 0 mm 0 mps 605 mmHg 50%
    11:00 +18°C° 0 mm 0 mps 605 mmHg 48%
    12:00 +21°C° 0 mm 1 mps 605 mmHg 46%
    13:00 +21°C° 0 mm 1 mps 605 mmHg 44%
    14:00 +21°C° 0.1 mm 1 mps 604 mmHg 49%
    15:00 +20°C° 0.1 mm 1 mps 604 mmHg 54%
    16:00 +19°C° 0.1 mm 1 mps 603 mmHg 59%
    17:00 +18°C° 0.4 mm 1 mps 603 mmHg 67%
    18:00 +15°C° 0.4 mm 1 mps 602 mmHg 76%
    19:00 +13°C° 0.4 mm 1 mps 602 mmHg 84%
    20:00 +12°C° 0.1 mm 1 mps 601 mmHg 87%
    21:00 +11°C° 0.1 mm 1 mps 601 mmHg 89%
    22:00 +10°C° 0.1 mm 1 mps 601 mmHg 92%
    23:00 +10°C° 0 mm 1 mps 601 mmHg 92%

    Tomorrow, 18 August, Friday

    Time Temperature Precipitation Wind Pressure Humidity
    00:00 +9°C° 0 mm 1 mps 601 mmHg 92%
    01:00 +9°C° 0 mm 1 mps 601 mmHg 91%
    02:00 +9°C° 0 mm 1 mps 600 mmHg 91%
    03:00 +9°C° 0 mm 1 mps 600 mmHg 91%
    04:00 +8°C° 0 mm 2 mps 600 mmHg 91%
    05:00 +9°C° 0 mm 2 mps 600 mmHg 89%
    06:00 +10°C° 0 mm 2 mps 601 mmHg 87%
    07:00 +12°C° 0 mm 2 mps 601 mmHg 85%
    08:00 +15°C° 0 mm 2 mps 602 mmHg 75%
    09:00 +17°C° 0 mm 2 mps 603 mmHg 65%
    10:00 +19°C° 0 mm 2 mps 604 mmHg 55%
    11:00 +20°C° 0 mm 2 mps 604 mmHg 52%
    12:00 +21°C° 0 mm 2 mps 604 mmHg 48%
    13:00 +23°C° 0 mm 2 mps 604 mmHg 45%
    14:00 +21°C° 0.7 mm 2 mps 603 mmHg 51%
    15:00 +20°C° 0.7 mm 2 mps 602 mmHg 58%
    16:00 +18°C° 0.7 mm 2 mps 601 mmHg 64%
    17:00 +17°C° 1.4 mm 2 mps 601 mmHg 71%
    18:00 +15°C° 1.4 mm 2 mps 600 mmHg 78%
    19:00 +14°C° 1.4 mm 1 mps 599 mmHg 85%
    20:00 +13°C° 1.6 mm 2 mps 599 mmHg 89%
    21:00 +12°C° 1.6 mm 2 mps 599 mmHg 92%
    22:00 +10°C° 1.6 mm 2 mps 599 mmHg 95%
    23:00 +10°C° 3.7 mm 2 mps 599 mmHg 96%

    Day after tomorrow, 19 August, Saturday

    Time Temperature Precipitation Wind Pressure Humidity
    00:00 +9°C° 3.7 mm 2 mps 599 mmHg 97%
    01:00 +10°C° 3.7 mm 1 mps 599 mmHg 97%
    02:00 +8°C° 6 mm 2 mps 598 mmHg 98%
    03:00 +7°C° 6 mm 2 mps 598 mmHg 98%
    04:00 +6°C° 6 mm 2 mps 598 mmHg 98%
    05:00 +6°C° 3.1 mm 2 mps 598 mmHg 97%
    06:00 +6°C° 3.1 mm 2 mps 598 mmHg 97%
    07:00 +5°C° 3.1 mm 2 mps 598 mmHg 97%
    08:00 +6°C° 0.9 mm 2 mps 599 mmHg 94%
    09:00 +6°C° 0.9 mm 2 mps 599 mmHg 92%
    10:00 +7°C° 0.9 mm 2 mps 599 mmHg 89%
    11:00 +9°C° 0.1 mm 2 mps 600 mmHg 79%
    12:00 +12°C° 0.1 mm 2 mps 601 mmHg 68%
    13:00 +14°C° 0.1 mm 2 mps 602 mmHg 57%
    14:00 +13°C° 0.2 mm 2 mps 601 mmHg 60%
    15:00 +13°C° 0.2 mm 2 mps 601 mmHg 63%
    16:00 +13°C° 0.2 mm 2 mps 601 mmHg 65%
    17:00 +10°C° 0.2 mm 2 mps 600 mmHg 73%
    18:00 +9°C° 0.2 mm 2 mps 600 mmHg 81%
    19:00 +8°C° 0.2 mm 2 mps 599 mmHg 89%
    20:00 +7°C° 0.1 mm 2 mps 600 mmHg 90%
    21:00 +7°C° 0.1 mm 2 mps 600 mmHg 92%
    22:00 +7°C° 0.1 mm 1 mps 600 mmHg 93%
    23:00 +7°C° 0 mm 1 mps 600 mmHg 94%

    20 August, Sunday

    Time Temperature Precipitation Wind Pressure Humidity
    00:00 +6°C° 0 mm 1 mps 599 mmHg 94%
    01:00 +6°C° 0 mm 1 mps 599 mmHg 95%
    02:00 +6°C° 0 mm 1 mps 599 mmHg 95%
    03:00 +5°C° 0 mm 1 mps 599 mmHg 95%
    04:00 +5°C° 0 mm 1 mps 599 mmHg 95%
    05:00 +6°C° 0 mm 1 mps 599 mmHg 93%
    06:00 +6°C° 0 mm 1 mps 600 mmHg 92%
    07:00 +7°C° 0 mm 1 mps 600 mmHg 90%
    08:00 +8°C° 0 mm 1 mps 601 mmHg 83%
    09:00 +8°C° 0 mm 2 mps 601 mmHg 75%
    10:00 +9°C° 0 mm 2 mps 602 mmHg 68%
    11:00 +10°C° 0 mm 2 mps 602 mmHg 62%
    12:00 +13°C° 0 mm 2 mps 603 mmHg 56%
    13:00 +14°C° 0 mm 2 mps 603 mmHg 50%
    14:00 +13°C° 0 mm 2 mps 603 mmHg 51%
    15:00 +13°C° 0 mm 2 mps 603 mmHg 53%
    16:00 +12°C° 0 mm 3 mps 603 mmHg 54%
    17:00 +12°C° 0.1 mm 2 mps 602 mmHg 64%
    18:00 +9°C° 0.1 mm 2 mps 602 mmHg 73%
    19:00 +7°C° 0.1 mm 2 mps 601 mmHg 83%
    20:00 +7°C° 0 mm 1 mps 601 mmHg 86%
    21:00 +6°C° 0 mm 1 mps 601 mmHg 90%
    22:00 +5°C° 0 mm 1 mps 601 mmHg 93%
    23:00 +5°C° 0 mm 1 mps 601 mmHg 93%

    21 August, Monday

    Time Temperature Precipitation Wind Pressure Humidity
    00:00 +5°C° 0 mm 1 mps 601 mmHg 93%
    01:00 +4°C° 0 mm 1 mps 600 mmHg 93%
    02:00 +4°C° 0 mm 1 mps 600 mmHg 91%
    03:00 +3°C° 0 mm 1 mps 600 mmHg 89%
    04:00 +3°C° 0 mm 1 mps 599 mmHg 87%
    05:00 +4°C° 0 mm 1 mps 600 mmHg 82%
    06:00 +6°C° 0 mm 1 mps 601 mmHg 76%
    07:00 +7°C° 0 mm 1 mps 602 mmHg 70%
    08:00 +10°C° 0 mm 1 mps 603 mmHg 62%
    09:00 +12°C° 0 mm 1 mps 603 mmHg 55%
    10:00 +14°C° 0 mm 1 mps 604 mmHg 47%
    11:00 +15°C° 0 mm 1 mps 604 mmHg 46%
    12:00 +16°C° 0 mm 2 mps 604 mmHg 45%
    13:00 +17°C° 0 mm 2 mps 604 mmHg 44%
    14:00 +17°C° 0 mm 2 mps 604 mmHg 46%
    15:00 +17°C° 0 mm 2 mps 604 mmHg 48%
    16:00 +16°C° 0 mm 3 mps 604 mmHg 51%
    17:00 +14°C° 0 mm 2 mps 603 mmHg 61%
    18:00 +12°C° 0 mm 2 mps 602 mmHg 72%
    19:00 +10°C° 0 mm 1 mps 601 mmHg 83%
    20:00 +9°C° 0 mm 1 mps 600 mmHg 86%
    21:00 +8°C° 0 mm 1 mps 600 mmHg 89%
    22:00 +7°C° 0 mm 1 mps 600 mmHg 92%
    23:00 +7°C° 0 mm 1 mps 599 mmHg 91%

    22 August, Tuesday

    Time Temperature Precipitation Wind Pressure Humidity
    00:00 +7°C° 0 mm 1 mps 599 mmHg 90%
    01:00 +7°C° 0 mm 1 mps 599 mmHg 88%
    02:00 +7°C° 0 mm 1 mps 599 mmHg 87%
    03:00 +7°C° 0 mm 1 mps 598 mmHg 86%
    04:00 +7°C° 0 mm 1 mps 598 mmHg 84%
    05:00 +8°C° 0 mm 1 mps 599 mmHg 80%
    06:00 +9°C° 0 mm 1 mps 599 mmHg 76%
    07:00 +11°C° 0 mm 1 mps 600 mmHg 72%
    08:00 +13°C° 0 mm 1 mps 601 mmHg 62%
    09:00 +16°C° 0 mm 1 mps 601 mmHg 53%
    10:00 +19°C° 0 mm 1 mps 602 mmHg 43%
    11:00 +20°C° 0 mm 1 mps 602 mmHg 41%
    12:00 +20°C° 0 mm 2 mps 602 mmHg 39%
    13:00 +20°C° 0 mm 2 mps 602 mmHg 38%
    14:00 +20°C° 0.1 mm 2 mps 601 mmHg 41%
    15:00 +19°C° 0.1 mm 2 mps 601 mmHg 45%
    16:00 +19°C° 0.1 mm 2 mps 600 mmHg 48%
    17:00 +18°C° 0.4 mm 1 mps 599 mmHg 60%
    18:00 +14°C° 0.4 mm 1 mps 598 mmHg 71%
    19:00 +12°C° 0.4 mm 1 mps 597 mmHg 82%
    20:00 +11°C° 0.7 mm 1 mps 597 mmHg 86%
    21:00 +10°C° 0.7 mm 1 mps 597 mmHg 90%
    22:00 +9°C° 0.7 mm 1 mps 597 mmHg 94%
    23:00 +8°C° 0.2 mm 1 mps 597 mmHg 95%
    Show more